Theta_e
346 345 346 344 345 344 344 344 345 349 350 350 349 349 349 349 348 348 349 348 348 348 348 347 346 346 347 347 347 345 345 345 344 343 341 341 341 340 340 340 340 341 341 342 342 343 344 345 345 345 344 343 345 345 345 346 345 345 344 343 342 341 341 341 341 341 341 342 343 345 345 344 344 345 345 344 344 343 342 343 345 344 344 344 346
342 346 346 348 345 346 344 346 348 349 350 350 349 349 349 349 349 348 348 348 348 347 348 347 347 347 347 347 346 345 345 345 344 343 342 340 340 340 340 339 340 340 340 341 341 342 342 343 345 344 344 343 343 345 346 345 345 344 343 341 341 341 340 340 340 340 340 340 340 341 342 344 342 343 343 343 344 343 340 342 342 344 345 345 347
343 346 347 348 344 345 347 345 347 350 350 349 349 349 349 349 349 349 348 349 348 348 347 348 346 347 347 346 345 346 345 345 344 343 341 339 339 339 339 339 339 339 339 340 341 341 341 341 342 342 342 341 344 345 345 344 344 343 341 340 340 340 340 340 340 340 340 340 338 340 340 341 341 341 341 342 342 343 340 340 341 341 343 344 345
343 346 347 346 342 343 346 347 346 349 349 348 348 348 349 349 349 348 348 348 348 348 346 347 347 346 346 346 345 345 345 345 345 344 343 340 338 339 338 338 339 339 339 340 340 340 340 340 341 340 341 344 345 345 344 343 341 341 340 340 340 340 340 340 339 340 340 339 339 337 336 337 338 341 340 340 341 341 339 339 340 340 342 344 346
345 347 347 348 348 344 345 346 348 349 349 349 348 348 349 348 348 348 348 347 347 347 346 347 347 347 347 346 345 345 344 344 343 344 343 341 338 338 338 338 338 338 338 339 340 339 339 339 339 339 339 343 343 343 343 343 343 341 340 340 339 339 339 339 339 339 339 339 338 335 334 334 336 338 341 340 339 339 338 338 339 339 339 339 340
346 347 347 346 348 348 342 345 349 349 349 348 348 349 350 350 349 349 348 348 348 347 346 347 346 346 346 346 345 344 345 344 343 343 342 342 338 337 338 338 338 338 339 338 339 339 338 338 338 340 344 344 343 342 342 342 342 342 340 339 339 339 339 338 338 337 338 337 336 334 334 334 333 334 338 339 338 337 337 338 338 338 337 337 337
346 347 347 347 348 346 340 345 348 349 348 348 348 349 350 349 349 349 348 348 347 347 346 346 346 346 346 345 344 344 344 344 343 342 342 340 336 336 337 338 337 338 338 338 338 338 337 338 338 340 342 342 342 341 341 341 340 340 339 339 339 338 338 337 337 336 337 334 335 333 333 334 334 334 337 339 338 337 337 338 338 338 338 338 337
348 348 347 347 348 343 341 345 346 349 348 348 348 349 349 348 348 348 347 347 347 347 346 346 346 346 346 345 344 344 343 343 343 342 342 338 335 335 336 337 337 337 338 337 338 337 336 337 338 339 341 340 340 341 341 340 340 339 339 338 338 337 337 336 336 337 336 333 334 333 332 333 333 334 337 337 338 337 336 336 337 337 337 337 335
346 347 347 347 347 339 340 343 346 348 349 348 348 348 348 349 349 348 347 347 347 346 345 345 345 345 345 345 344 343 343 342 342 342 340 336 334 334 336 337 336 337 338 337 337 336 338 339 342 342 342 342 341 341 340 340 338 338 338 337 337 336 335 335 335 335 333 333 332 332 331 332 332 334 336 337 336 336 335 334 334 336 336 334 334
347 346 347 347 348 337 339 341 344 345 348 348 348 347 347 348 348 348 347 347 347 346 346 344 344 345 345 344 343 342 342 342 342 341 338 336 333 334 336 336 336 336 336 336 335 337 339 343 343 342 342 341 338 337 337 337 336 337 336 336 336 335 334 334 335 333 332 333 331 331 332 333 331 332 335 337 336 336 335 334 334 334 334 333 333
347 346 347 347 347 337 340 341 342 343 347 348 348 347 346 347 347 347 347 347 346 346 345 345 345 344 344 343 343 342 342 341 340 339 338 335 334 335 336 336 335 335 335 335 335 338 338 341 342 340 338 336 335 335 335 335 335 335 335 335 333 333 333 333 332 332 332 332 332 331 333 335 331 333 336 337 335 334 335 334 334 334 333 334 334
345 345 347 346 341 337 338 340 341 343 344 347 347 347 346 346 347 347 347 346 346 346 345 345 345 343 343 343 342 342 342 341 340 339 338 334 334 335 336 335 335 334 334 333 337 337 340 341 339 337 335 333 332 332 332 333 334 334 332 332 331 330 330 332 330 330 332 332 333 333 334 334 335 337 339 338 337 336 335 335 334 333 334 334 333
345 346 347 346 346 335 337 338 342 344 345 346 347 347 346 346 346 346 346 346 346 345 344 343 342 342 343 342 342 342 341 340 339 338 337 334 334 334 335 335 335 334 334 333 336 337 338 338 337 335 334 332 330 330 330 330 331 331 330 329 328 328 328 330 330 330 331 332 332 332 331 334 336 338 339 339 339 338 336 335 336 335 337 338 337
346 346 345 346 345 339 335 340 340 341 342 345 346 346 346 346 346 346 345 346 346 345 344 343 343 342 342 342 341 341 340 339 338 338 337 335 333 333 333 334 335 334 334 333 333 334 334 335 334 333 331 330 328 328 329 329 329 329 328 327 326 326 327 327 328 330 330 330 331 330 330 331 333 337 339 340 339 339 338 337 336 337 337 338 336
344 347 346 346 347 344 336 337 338 339 341 341 344 347 346 346 347 347 346 346 345 344 344 344 343 342 342 341 341 340 340 339 338 337 336 336 333 332 331 332 332 334 334 334 333 333 332 333 332 330 328 327 326 327 328 328 328 328 327 326 326 325 326 326 326 328 328 326 328 328 329 329 334 335 338 340 339 338 338 338 337 336 337 336 336
345 346 347 344 346 346 344 340 335 338 338 339 341 343 346 347 347 347 346 346 345 344 344 342 342 342 341 341 341 340 340 339 338 337 336 335 334 332 330 329 330 332 333 333 333 333 332 330 329 327 326 326 326 327 328 328 327 326 326 325 324 325 324 324 326 328 328 327 327 327 327 329 331 332 335 337 338 338 337 337 336 336 336 336 336
340 340 340 339 342 345 343 343 339 332 334 336 337 340 342 345 346 347 346 345 344 344 343 342 341 341 340 340 340 338 338 337 337 336 335 334 335 334 333 331 328 328 330 331 331 330 329 327 326 325 325 326 327 327 327 326 326 325 324 324 324 325 323 324 328 328 326 327 326 327 326 328 330 332 333 334 336 335 337 336 335 336 336 336 336
331 333 334 335 337 338 343 343 341 341 344 338 332 335 338 341 344 343 343 344 344 343 342 342 342 341 340 339 338 337 337 336 336 335 334 334 334 333 332 331 328 327 328 328 328 327 327 325 325 325 326 326 326 326 326 325 324 323 322 322 323 324 324 323 327 327 327 327 327 327 327 329 329 331 332 332 333 334 335 335 335 335 335 335 334
329 326 328 331 331 331 336 337 338 341 343 345 346 344 333 336 339 339 340 342 342 340 340 340 339 338 337 335 334 333 332 332 332 333 333 333 332 330 331 329 329 329 329 329 328 328 327 326 326 325 325 325 325 325 324 323 322 321 321 321 321 321 322 325 329 329 329 328 327 328 328 331 330 330 331 332 331 333 331 333 333 333 334 334 334
328 327 327 327 327 326 331 333 332 339 340 343 346 347 335 332 337 338 338 339 338 337 337 337 332 331 330 330 328 331 329 330 326 331 329 330 329 329 330 329 329 329 328 328 328 328 327 326 325 324 324 323 323 321 321 321 320 319 319 319 319 319 324 325 327 327 328 328 329 330 331 331 333 333 332 331 331 332 330 330 331 331 331 332 332
324 324 323 324 326 324 327 331 332 337 335 336 343 346 348 331 331 332 332 332 333 333 332 327 324 323 326 325 327 335 334 334 333 333 325 332 323 325 328 330 329 327 327 327 326 325 324 324 323 322 320 318 315 315 315 316 316 316 316 316 316 320 321 323 324 324 325 327 327 329 330 330 332 334 333 333 333 332 330 331 330 328 328 328 328
325 327 321 320 321 321 324 326 332 333 335 336 340 344 346 340 346 345 344 337 330 328 337 342 335 340 326 334 339 336 336 336 333 330 332 331 329 322 324 327 328 327 326 326 326 324 324 323 322 321 319 317 315 315 313 311 311 311 312 312 315 317 318 321 322 321 321 322 325 328 329 330 332 333 332 333 332 332 331 331 331 331 331 331 331
322 324 322 318 319 321 323 325 329 331 335 336 337 341 344 345 347 346 345 336 338 342 343 342 342 340 340 341 337 338 337 335 334 332 331 322 326 321 323 326 327 326 326 325 325 323 322 321 320 318 316 315 315 314 313 312 310 308 308 311 311 312 314 317 318 319 319 319 321 326 328 329 330 332 332 332 332 330 330 330 330 330 330 330 330
325 321 320 319 319 321 323 325 327 330 333 336 338 340 343 344 344 344 342 343 342 342 343 342 343 342 341 341 339 338 336 334 325 323 325 328 323 318 318 319 321 321 320 321 321 321 320 319 318 316 315 313 312 311 309 309 308 308 308 307 307 308 310 312 314 316 317 317 319 323 326 328 330 330 331 331 331 330 329 329 330 330 329 329 329
321 320 321 319 318 320 324 327 328 330 332 336 336 337 341 343 343 342 342 344 342 341 342 342 341 342 342 340 340 338 337 333 331 331 330 326 325 323 324 324 324 324 320 322 320 319 319 319 317 314 313 311 309 307 306 305 305 305 304 304 304 305 306 307 309 312 313 314 316 319 322 325 328 329 329 329 329 328 329 329 328 329 328 327 327
317 321 320 320 321 320 322 325 327 328 330 334 336 336 336 339 341 342 341 341 342 341 340 342 339 340 342 340 339 338 335 334 332 332 330 329 326 325 325 325 325 325 324 323 322 321 319 316 314 311 308 306 305 305 304 303 302 302 301 301 301 301 302 303 304 307 309 311 312 315 318 320 322 325 327 328 327 327 326 327 328 327 327 326 326
321 321 319 319 320 321 322 324 325 328 329 334 336 337 338 336 340 340 340 339 340 340 339 339 339 340 341 340 338 337 334 334 332 331 330 331 328 326 325 325 325 324 323 322 321 319 316 313 310 308 306 304 303 303 302 302 302 301 300 300 300 300 300 300 301 302 305 307 307 311 315 317 320 322 324 325 326 325 325 325 325 325 324 325 324
320 319 319 319 320 320 321 322 324 326 329 333 335 335 335 335 332 336 339 337 338 338 338 336 337 339 338 338 335 336 334 334 333 331 330 330 331 328 327 326 325 324 322 321 317 315 313 311 309 306 304 302 301 301 300 300 300 300 299 299 299 299 299 298 299 299 300 302 303 305 311 314 317 319 322 324 323 324 323 324 324 324 323 323 322
318 317 318 318 319 320 320 320 322 324 327 331 333 334 333 333 333 332 330 331 336 337 337 335 334 335 337 338 335 334 333 330 332 331 329 325 324 328 329 327 325 323 321 318 315 313 311 309 306 304 302 301 301 300 299 299 299 299 298 298 298 298 298 298 298 298 298 298 298 300 305 310 314 316 318 321 323 323 322 322 323 323 323 322 321
316 315 316 318 318 318 319 319 321 323 325 330 331 332 332 331 331 329 327 325 330 331 333 333 334 333 332 332 332 330 328 326 325 326 324 321 319 320 322 323 322 320 318 315 314 312 309 306 304 303 301 300 299 299 298 297 297 298 297 297 297 297 297 297 297 297 297 297 297 296 299 303 308 313 314 316 318 319 320 319 320 322 321 321 320
314 314 316 317 319 318 320 321 321 322 325 328 329 331 331 330 328 327 326 324 325 327 330 329 330 330 329 329 330 329 327 326 324 321 322 320 318 316 315 315 314 315 315 313 313 310 309 307 304 301 301 299 298 299 298 297 296 296 297 297 296 297 296 296 296 297 296 296 296 297 297 298 302 306 310 313 314 315 316 317 317 318 320 321 321
313 313 316 317 317 318 320 320 321 322 324 327 329 329 329 326 325 326 324 324 325 323 322 325 325 327 329 329 327 328 326 324 322 320 317 315 314 313 312 313 312 313 314 313 312 310 307 306 304 303 302 300 298 297 297 296 295 295 296 296 296 296 296 296 296 296 296 296 296 296 296 296 297 299 303 308 311 312 313 314 314 315 316 318 319
314 315 315 316 316 318 318 318 320 322 323 324 325 327 327 323 321 322 323 322 322 322 320 318 319 324 326 327 326 325 326 326 323 319 315 314 313 312 311 310 311 312 311 310 308 306 305 303 302 301 299 299 298 296 297 295 295 295 295 295 295 295 296 295 295 295 295 295 295 295 295 296 296 296 297 301 304 308 310 311 312 312 313 315 317
313 314 315 315 316 317 318 319 319 319 320 318 319 322 322 320 316 316 315 315 315 316 315 314 316 320 321 322 322 321 321 319 316 313 310 309 309 309 310 310 311 310 310 308 306 305 302 301 300 298 298 296 295 295 294 294 294 294 294 295 295 295 294 294 294 294 294 294 294 295 294 294 294 295 295 295 299 302 305 308 309 309 310 310 313
312 314 314 315 315 315 316 316 315 317 317 316 315 316 318 316 314 313 313 312 311 311 310 312 314 313 314 316 317 316 317 315 313 310 307 306 304 304 305 307 308 309 308 307 306 304 302 301 299 298 297 296 295 295 295 294 294 293 294 294 294 294 294 293 294 294 293 293 293 294 294 293 293 294 294 292 293 296 300 303 306 307 308 308 309
312 314 314 315 314 315 315 316 316 315 314 312 311 312 313 314 313 309 309 309 309 309 309 308 309 310 311 312 313 314 315 313 309 307 306 307 305 303 304 305 306 307 308 307 306 303 301 300 299 299 296 296 295 295 295 294 294 294 294 294 293 293 292 292 293 293 293 293 292 293 293 293 293 292 293 292 291 293 296 298 301 303 304 304 306
313 313 312 313 313 312 313 315 314 313 309 308 308 307 307 308 309 309 306 307 306 306 306 307 307 307 308 309 309 309 310 309 306 305 305 304 305 304 305 306 307 306 306 305 304 302 301 301 300 300 299 296 296 295 294 294 294 293 294 294 294 293 292 292 292 292 293 292 292 292 292 292 292 293 292 292 292 292 292 294 295 297 298 299 301
313 313 313 313 312 312 313 311 310 309 309 308 306 305 304 305 305 304 304 304 304 305 304 304 305 307 308 304 304 304 305 306 306 306 305 304 305 305 305 305 306 306 305 304 302 302 302 302 300 300 299 297 295 294 293 293 294 293 293 293 293 292 292 292 292 292 291 291 291 291 291 291 292 292 291 292 292 291 292 291 292 292 293 295 298
312 312 312 312 311 310 309 306 306 305 305 305 303 302 301 303 303 301 301 301 301 303 303 303 304 304 304 303 302 302 302 303 304 304 304 303 304 305 306 306 306 306 304 302 302 302 302 302 300 299 298 297 295 295 294 294 294 293 292 292 292 292 292 292 292 291 291 291 290 291 292 291 291 291 291 291 291 291 291 291 291 291 290 292 294
311 311 311 311 310 307 306 305 304 303 304 303 302 301 301 300 299 299 300 298 298 299 300 301 300 301 300 301 301 302 302 301 301 302 303 304 304 305 306 305 305 304 302 301 301 301 301 300 299 298 296 296 296 295 295 293 293 292 292 292 292 292 292 291 291 291 291 291 290 290 290 291 290 290 290 290 291 291 290 290 290 289 290 289 291
311 310 310 309 309 306 305 304 303 302 302 302 302 301 300 300 300 300 299 300 296 297 297 298 298 298 300 301 301 301 301 301 301 301 302 302 304 305 305 305 305 305 304 302 302 302 301 300 298 297 295 294 294 296 295 295 293 291 292 291 291 292 292 291 290 290 290 290 290 289 290 290 290 290 290 290 290 290 290 289 289 289 288 288 288
309 309 309 309 309 306 305 303 303 303 303 303 302 303 303 303 302 300 299 299 298 296 296 296 296 297 298 298 298 299 300 300 300 301 301 302 302 303 304 304 305 305 304 303 302 300 300 299 298 295 296 294 293 295 296 297 294 291 289 289 290 291 292 291 290 290 290 290 290 289 289 289 289 290 290 290 289 289 289 289 289 288 288 287 287
309 309 309 309 307 304 304 303 303 303 303 303 304 303 302 301 300 298 299 295 294 295 296 296 295 295 295 295 296 297 298 299 299 299 301 301 302 302 303 304 304 303 302 301 301 300 299 299 298 296 295 295 294 295 295 295 294 294 294 292 289 288 290 290 290 289 289 290 289 289 289 289 289 289 289 289 289 288 288 288 288 287 287 287 286
308 308 308 307 305 305 304 303 303 304 304 303 300 299 298 297 297 296 295 297 295 292 292 293 293 293 293 294 294 295 296 297 298 299 300 301 302 302 302 302 302 303 302 300 300 300 299 299 298 297 296 292 293 292 293 294 297 296 293 295 292 293 286 288 288 289 290 289 289 288 289 288 289 289 289 288 288 288 288 288 287 287 286 286 286
307 307 308 307 304 304 303 303 303 302 302 299 297 296 295 294 293 293 294 294 295 294 292 291 292 292 292 293 293 294 295 295 296 298 299 300 301 301 301 301 301 302 302 301 300 300 300 300 299 297 297 295 293 293 292 293 295 293 297 292 288 289 290 287 288 287 290 289 288 288 288 288 288 288 288 288 288 288 287 287 287 286 286 285 285
307 308 307 306 305 304 304 303 302 301 300 298 296 296 295 294 293 293 292 294 291 291 292 291 291 292 292 292 292 293 294 294 295 297 298 299 300 300 301 301 301 300 301 301 300 300 300 299 299 300 299 299 295 293 291 291 292 293 292 292 293 293 288 289 289 283 287 288 288 287 287 287 287 287 287 287 287 287 287 287 287 286 285 285 284
307 308 307 305 305 305 303 302 301 300 299 298 297 296 295 295 295 297 297 296 294 295 296 295 294 293 293 292 292 292 293 293 295 296 297 297 299 299 300 300 300 300 299 299 298 298 298 299 299 299 299 297 296 293 291 290 290 291 292 292 293 292 295 289 287 287 284 287 288 287 287 287 287 287 286 287 287 287 287 286 286 285 285 284 284
308 308 305 305 305 304 302 301 300 298 297 297 297 296 296 296 298 300 300 299 299 296 294 292 293 292 292 292 292 291 292 293 294 295 295 296 297 297 298 298 298 298 297 298 297 297 297 296 297 297 296 297 297 294 291 291 290 288 291 291 290 292 291 291 293 291 289 285 285 286 286 286 287 286 286 286 286 286 286 285 285 285 284 284 284
307 307 306 305 305 304 302 300 299 297 297 296 296 296 297 299 301 302 302 301 297 294 292 291 291 292 291 291 291 291 291 293 293 293 294 294 294 296 296 296 296 295 296 296 295 295 294 294 294 294 295 295 296 295 293 292 290 288 289 290 290 289 289 289 290 291 288 286 285 286 286 286 285 286 286 286 286 286 285 285 284 284 284 283 283
307 307 307 306 304 302 300 299 298 297 296 295 294 295 297 297 297 299 298 293 293 292 292 291 291 291 290 291 291 291 291 291 292 292 293 293 293 294 295 295 294 293 293 294 294 294 294 294 294 294 294 294 293 294 293 292 291 291 291 290 288 288 288 287 288 287 287 288 285 285 285 285 285 285 286 285 285 285 285 285 284 284 283 283 283
307 306 306 303 300 300 299 298 297 297 295 294 294 294 296 296 296 296 294 292 291 291 291 291 290 291 290 290 291 291 291 291 291 291 291 292 292 293 293 293 292 292 292 292 292 292 292 292 292 293 293 293 292 292 292 292 291 291 291 290 289 289 288 287 286 287 287 285 286 285 286 286 284 285 285 285 285 284 284 284 284 283 283 283 283
Wind_Speed
7 8 8 5 1 12 14 9 5 7 12 11 10 11 12 12 10 10 11 12 13 13 14 14 14 14 14 15 15 15 16 17 18 18 18 18 17 16 16 16 16 16 16 15 14 14 14 15 15 15 16 17 18 19 19 20 20 20 19 19 19 19 19 19 18 17 16 17 21 22 21 22 21 21 21 22 22 22 20 20 17 15 14 14 19
4 6 7 8 2 3 13 8 8 9 11 10 10 12 11 9 11 10 11 11 13 13 13 14 13 14 14 15 15 16 16 17 18 18 18 17 16 16 17 16 16 16 16 15 14 14 14 15 15 16 17 18 18 19 20 19 19 19 19 19 19 19 19 18 17 16 15 14 17 20 21 23 21 20 21 22 21 21 20 21 20 13 11 19 21
1 5 6 9 4 1 8 10 7 11 11 10 10 11 10 10 9 10 11 12 13 13 13 13 13 14 14 15 15 15 16 17 18 17 17 16 16 16 17 17 16 16 16 15 15 14 15 16 16 16 18 18 18 19 20 19 19 19 19 19 20 20 19 18 17 15 13 11 11 12 16 21 22 21 21 21 22 22 21 21 20 17 14 22 20
2 5 6 8 5 1 4 4 9 12 10 10 10 11 11 10 9 10 11 12 13 13 13 13 13 14 14 15 15 16 16 17 17 17 17 16 16 16 16 16 16 16 15 15 15 16 17 16 16 17 18 18 19 20 19 19 19 19 19 20 20 19 18 16 15 14 12 11 10 11 11 13 17 22 21 21 21 22 21 21 21 21 21 21 23
4 5 6 8 8 6 3 3 9 12 10 10 9 10 11 12 12 11 12 13 14 13 13 13 13 13 14 15 15 15 16 16 17 17 17 17 16 16 16 16 16 16 15 15 16 16 16 16 16 17 17 18 19 19 19 18 19 19 20 20 18 17 16 16 14 13 11 12 11 12 12 13 13 20 21 21 22 20 20 21 21 21 21 20 21
4 4 5 5 6 8 3 3 7 12 11 10 9 10 11 11 11 11 11 13 13 13 13 13 13 14 14 15 15 15 16 16 17 17 17 17 16 16 16 15 16 16 16 16 16 16 16 16 17 18 19 19 19 19 19 19 19 18 19 18 17 17 16 15 14 13 10 11 12 11 13 14 14 13 22 21 21 20 21 22 22 22 21 21 19
4 3 5 5 5 6 2 3 5 10 11 10 10 10 11 12 12 11 12 13 13 13 13 13 13 14 15 15 15 16 16 16 16 16 17 17 16 16 16 16 15 16 17 16 16 16 16 16 17 18 18 18 18 18 19 20 19 19 19 18 17 17 16 14 12 11 12 12 11 12 12 15 13 11 21 22 21 20 21 22 23 22 22 21 21
4 4 4 4 4 5 2 4 4 6 10 10 11 9 10 11 11 11 11 12 12 13 12 13 13 13 15 16 15 16 16 16 16 16 16 16 16 16 16 15 16 16 16 17 16 16 16 17 17 17 18 18 18 19 20 20 19 19 18 17 17 16 15 14 10 13 13 12 12 11 12 13 14 12 20 22 23 20 20 21 22 23 23 23 19
4 4 5 4 5 5 4 5 3 3 9 9 9 9 7 8 10 10 11 11 12 12 13 12 13 13 15 16 15 15 15 16 16 16 16 15 15 16 16 15 15 16 16 16 16 16 18 18 18 19 19 20 20 21 20 19 18 17 17 16 16 15 14 11 12 12 12 12 13 13 14 14 13 13 18 21 22 21 21 18 18 21 22 21 20
5 4 4 4 4 5 4 4 4 4 6 8 8 8 8 9 10 11 10 11 12 12 12 11 13 14 15 15 15 15 15 15 16 16 15 15 15 16 16 15 15 16 16 16 16 17 18 19 19 20 22 21 20 20 19 17 17 17 16 16 15 14 13 10 13 15 12 12 14 16 14 14 12 13 17 19 20 20 17 15 15 16 16 20 22
6 4 4 4 4 4 4 5 3 4 2 8 8 8 9 8 9 10 10 10 11 12 12 11 13 14 14 15 15 14 14 15 15 15 14 14 15 16 16 15 15 15 16 15 17 17 17 19 21 22 21 19 19 18 17 16 16 16 16 15 15 14 13 10 14 13 14 15 15 14 14 14 13 12 17 18 18 19 17 18 17 18 19 20 20
7 5 4 4 5 3 4 5 1 1 3 6 7 8 7 6 7 10 9 9 11 12 12 10 13 14 14 15 15 14 14 14 14 14 14 14 15 15 16 15 15 15 16 16 17 18 19 20 21 20 19 18 18 17 17 16 16 16 16 15 15 14 12 10 13 13 13 15 13 13 15 15 15 15 18 18 18 18 18 19 19 20 19 19 20
7 6 4 6 6 4 3 1 2 2 1 6 8 8 7 7 7 8 9 9 10 12 12 11 11 13 14 14 15 14 14 14 14 14 14 14 15 15 15 15 16 16 16 16 17 17 18 20 19 18 18 18 17 17 17 17 16 16 15 15 14 13 11 11 12 13 13 14 12 13 13 13 15 19 18 18 17 17 19 19 19 19 20 21 20
6 6 5 6 3 5 4 3 2 5 3 2 8 7 8 8 7 8 8 9 10 12 12 11 11 13 14 14 14 14 13 13 14 14 15 15 15 15 15 15 15 16 15 16 17 17 17 18 18 18 18 18 18 17 17 17 17 16 15 14 12 10 9 11 13 11 12 13 13 14 13 12 14 20 22 21 18 18 19 19 20 20 20 19 19
4 7 6 4 4 5 6 5 4 2 1 1 2 4 7 8 6 5 8 8 9 11 12 10 12 13 14 14 14 14 14 14 15 15 15 15 15 15 14 14 15 15 15 16 16 17 17 17 18 18 18 18 18 18 18 18 17 16 15 14 12 10 9 10 10 11 11 12 11 13 13 12 17 18 22 24 22 20 20 19 19 19 20 20 19
2 4 5 3 5 5 7 4 4 3 3 2 4 2 4 6 6 6 8 9 10 11 11 10 12 13 14 14 14 14 14 15 15 16 15 15 15 15 15 15 15 15 15 16 17 17 18 18 18 18 18 19 19 19 18 18 17 16 15 14 12 10 10 10 10 11 11 11 11 12 13 13 19 18 19 21 22 21 21 21 22 22 23 22 22
6 6 5 5 4 5 5 4 5 3 2 2 2 2 2 4 6 7 8 7 9 10 11 10 12 13 12 14 14 13 14 15 16 16 15 15 15 16 16 16 15 15 15 16 17 17 17 18 18 19 19 19 19 19 19 18 17 16 15 14 13 10 11 11 11 11 11 12 12 12 13 12 17 19 19 21 21 20 21 21 21 22 22 23 22
6 6 6 5 6 6 3 5 3 4 4 3 2 1 2 3 7 7 7 7 7 9 10 9 11 12 11 12 12 12 13 15 15 15 15 14 14 16 17 17 16 16 17 17 17 18 18 19 19 19 20 20 20 19 19 18 17 16 15 13 12 11 11 12 12 11 12 13 13 11 11 15 18 19 20 20 21 21 22 23 24 24 22 23 22
5 5 6 6 6 4 4 5 2 4 5 5 4 4 1 4 6 6 8 7 7 8 9 9 10 11 12 12 12 12 13 13 13 13 14 12 12 13 15 16 17 18 18 18 19 19 19 19 19 19 20 20 20 19 19 18 16 16 15 13 10 11 12 13 12 12 13 11 12 11 11 15 18 19 19 20 20 22 21 22 22 21 21 22 23
5 6 5 5 4 4 3 3 1 3 1 3 5 6 4 5 6 7 7 8 7 8 9 10 10 11 12 13 13 12 12 12 12 11 11 12 11 13 14 17 18 19 18 18 18 18 18 19 19 19 19 19 19 19 18 17 16 15 14 12 11 12 11 11 13 13 13 13 13 12 17 20 20 21 20 21 21 21 21 20 21 22 22 22 22
2 5 4 4 4 4 3 3 2 3 2 2 4 7 6 7 6 6 8 8 8 8 9 9 9 10 11 12 11 10 11 9 10 11 11 11 11 11 14 17 17 18 19 19 19 19 19 19 19 19 19 19 19 19 18 17 17 15 14 11 11 10 11 12 13 12 12 13 14 14 18 18 20 21 22 23 23 22 23 22 22 20 20 20 20
4 4 3 3 2 2 2 3 1 2 2 1 2 4 6 7 7 8 7 7 8 9 9 8 8 8 9 10 8 8 7 8 10 11 10 12 11 12 13 15 17 17 17 18 18 18 18 18 17 16 15 13 12 9 11 14 15 14 12 12 10 9 10 12 13 12 12 11 12 14 20 22 23 24 24 23 23 23 23 25 25 24 24 24 24
4 4 3 2 1 1 2 1 1 1 1 2 1 2 6 7 8 7 6 7 8 8 8 9 8 8 8 8 7 7 8 7 7 7 9 12 12 13 13 14 15 15 16 17 17 18 17 17 16 14 13 12 9 7 7 6 8 10 11 10 9 9 10 12 11 11 12 12 10 15 20 22 23 24 25 26 26 26 25 25 26 26 26 26 25
6 3 3 1 1 1 0 1 1 1 1 1 1 3 5 8 6 6 5 6 7 7 7 8 7 8 8 6 6 7 8 7 10 14 12 10 10 13 15 14 15 15 15 13 15 16 17 15 12 11 10 8 7 7 7 7 7 7 8 8 8 9 9 9 10 10 11 13 13 20 21 22 24 24 24 25 25 26 25 26 26 27 28 27 27
3 2 3 2 1 1 1 1 1 1 2 1 1 1 3 5 6 7 8 6 6 6 6 6 7 8 8 6 6 7 8 8 9 7 7 10 10 10 9 9 9 10 11 10 10 9 9 8 8 8 7 8 8 8 7 7 7 8 8 8 9 9 8 9 9 10 10 11 14 20 20 22 24 25 24 24 25 26 26 27 27 26 28 28 27
3 4 3 3 2 1 1 1 3 2 2 1 1 0 1 4 5 6 7 7 6 6 6 5 7 8 7 7 8 8 8 8 8 8 8 9 9 9 8 8 8 8 8 7 7 8 7 8 8 8 8 8 9 8 8 7 7 7 7 8 8 8 8 8 9 10 10 10 13 22 22 22 22 23 24 24 24 25 26 26 26 27 27 27 27
4 2 1 1 0 1 1 2 3 2 2 2 2 1 1 2 5 8 7 7 7 8 7 7 7 8 7 7 7 7 9 9 8 8 9 5 7 8 8 8 8 7 7 8 7 7 7 8 8 9 8 9 9 9 9 8 7 7 7 8 8 8 8 8 9 9 9 10 13 23 22 23 24 24 24 24 24 24 26 25 26 25 26 27 26
2 2 1 2 1 2 2 4 4 3 3 3 5 4 1 0 3 2 7 6 8 8 7 6 4 7 8 6 3 7 5 8 8 8 8 5 3 6 8 7 6 6 7 7 8 7 8 8 9 9 9 8 8 8 8 8 7 8 8 8 9 8 9 9 9 9 9 9 11 19 22 24 25 24 25 25 25 25 26 24 25 25 26 25 25
5 4 3 3 3 2 3 5 5 5 5 5 7 4 2 1 0 2 1 4 6 6 6 6 5 3 6 8 7 6 6 4 8 7 7 5 3 5 5 7 7 5 7 7 8 8 8 8 8 8 7 7 7 7 7 8 7 7 7 8 9 9 8 9 9 9 9 9 10 15 23 23 24 25 25 25 25 25 25 25 25 24 25 26 25
5 3 3 3 2 3 4 5 5 5 5 6 8 6 3 2 2 2 3 2 4 4 6 5 4 5 2 5 6 6 6 5 4 7 8 8 6 5 5 5 5 4 5 6 6 7 8 8 9 8 8 8 8 7 6 6 7 7 8 8 8 8 8 8 9 9 8 8 8 11 22 22 23 24 25 25 26 26 26 25 25 25 26 25 25
4 5 4 3 2 3 4 4 5 6 5 7 9 8 5 3 3 3 3 3 3 5 4 4 4 4 5 6 6 8 8 7 5 5 4 5 7 7 6 6 6 4 5 7 6 7 7 8 9 9 8 8 7 5 6 7 7 8 8 8 8 8 8 8 8 8 8 8 8 8 12 21 23 24 24 25 25 25 25 25 26 25 25 25 24
5 5 3 2 2 2 3 2 4 5 6 7 7 8 6 4 4 4 3 4 4 5 4 3 4 5 6 7 7 6 9 9 7 6 7 7 6 7 7 7 6 6 5 7 8 8 8 9 11 9 9 8 7 6 6 7 7 7 8 9 8 8 8 7 8 9 8 8 8 8 8 9 18 22 23 24 25 25 26 26 26 26 25 25 24
3 3 3 3 4 4 3 3 3 4 7 6 5 5 5 5 4 4 4 4 4 4 5 3 2 5 6 8 8 8 8 10 9 9 7 8 6 7 8 7 7 6 7 10 11 10 9 9 9 7 7 7 8 7 6 7 8 8 8 8 8 8 7 8 8 8 9 8 8 8 8 8 9 15 22 24 25 26 26 26 25 25 25 25 25
3 3 4 4 3 3 3 3 3 3 4 2 1 4 4 5 5 4 2 2 3 3 4 4 1 2 4 7 7 6 6 6 8 7 6 7 7 7 10 9 7 8 7 8 9 9 9 9 10 8 7 7 8 7 7 7 7 8 8 7 7 7 7 8 8 8 8 8 8 8 8 8 8 8 10 21 25 25 25 25 25 25 25 25 25
3 4 5 5 5 3 2 3 2 4 4 3 2 4 4 5 5 4 3 3 3 3 3 2 4 3 3 6 6 6 6 8 8 7 6 6 6 8 7 8 8 8 8 8 9 9 9 9 8 9 8 7 7 7 7 7 8 8 7 6 7 7 8 8 8 8 8 8 8 8 8 8 8 8 9 9 16 22 23 24 24 24 24 24 24
6 5 5 5 5 4 5 5 5 5 5 4 3 4 5 4 5 5 4 4 3 4 3 3 2 3 4 5 7 7 7 9 8 7 8 7 6 7 7 8 8 7 8 8 9 9 8 8 8 9 11 8 8 8 7 8 8 8 6 6 7 7 8 8 9 8 8 7 8 8 8 8 8 8 8 8 9 13 20 22 23 24 24 24 24
6 6 6 6 5 5 5 6 6 7 6 5 5 5 5 5 5 5 5 5 4 4 4 4 3 4 3 5 6 6 7 8 8 7 8 8 7 7 8 9 8 8 8 7 8 8 8 8 8 7 9 10 9 10 9 8 8 8 7 8 7 7 8 7 8 8 7 8 8 8 8 8 8 8 8 7 7 7 13 17 20 23 23 23 23
6 7 7 7 6 6 6 5 5 5 5 6 5 5 5 5 5 5 4 4 5 4 4 4 3 3 3 4 4 4 6 8 8 7 7 7 8 8 8 8 8 8 9 8 8 8 8 9 10 8 8 9 9 9 9 8 7 7 8 8 8 7 7 7 7 7 7 8 8 8 7 7 7 7 7 7 7 7 7 10 13 17 22 22 23
6 8 8 7 7 6 6 5 5 6 6 6 6 6 6 6 6 6 5 5 3 4 4 3 4 3 4 5 5 4 4 6 6 7 8 8 8 9 9 9 8 8 9 9 7 7 8 9 11 10 8 7 8 9 9 8 8 7 8 9 8 9 7 7 7 7 7 7 7 6 6 6 6 7 7 7 7 8 8 8 8 8 11 20 21
8 9 9 7 7 6 5 5 5 6 6 6 6 5 4 4 6 5 5 4 3 3 4 3 2 4 5 6 6 5 5 6 6 5 7 8 9 9 9 8 8 9 10 10 9 8 11 12 11 11 11 9 8 8 8 9 9 9 9 8 8 9 9 8 8 7 6 6 6 5 6 6 6 7 7 7 7 7 8 8 8 8 8 11 17
10 10 10 9 9 7 7 7 6 6 6 7 6 6 6 5 4 5 6 3 3 2 4 4 3 3 4 6 5 5 6 7 7 6 6 9 8 9 9 8 8 8 9 10 9 11 10 10 10 9 11 11 8 7 8 8 9 8 7 8 8 8 8 8 8 7 6 6 6 6 5 5 5 6 6 6 6 7 7 8 8 8 8 8 9
12 12 11 11 9 8 8 7 6 7 6 6 7 6 5 4 5 5 7 6 4 3 4 3 4 3 3 4 5 5 6 6 7 6 6 8 9 8 8 9 8 8 8 9 10 10 11 11 10 9 6 9 8 7 4 4 5 6 8 7 6 5 5 7 7 7 6 6 6 6 6 5 5 4 4 5 6 7 7 7 7 8 8 8 9
12 12 12 11 9 8 7 7 7 7 6 6 6 5 4 4 4 4 4 5 3 3 3 4 4 4 3 3 3 4 4 5 6 6 6 7 8 8 8 8 8 9 10 10 10 11 10 12 11 11 9 5 6 2 1 4 3 5 6 7 6 6 5 5 6 7 6 5 5 6 5 6 5 4 4 4 5 6 7 7 8 8 9 9 8
11 11 12 12 8 8 8 8 7 7 7 5 4 6 7 8 7 7 5 4 3 4 5 5 4 4 4 3 3 3 3 4 5 6 5 7 8 8 8 7 8 8 10 11 11 10 10 10 9 9 11 10 6 4 2 2 2 6 5 1 3 2 5 4 5 4 5 6 5 6 5 4 4 4 4 5 6 6 6 6 8 8 8 9 8
12 13 13 12 6 9 9 9 8 8 6 6 7 8 9 8 7 8 7 7 5 4 5 3 3 3 4 4 4 3 4 4 5 5 5 7 7 8 9 8 8 8 8 9 10 10 10 9 10 10 9 10 8 4 2 2 2 3 3 3 3 4 1 7 6 5 3 3 5 5 5 5 5 4 5 5 5 5 5 6 7 7 8 8 9
13 13 12 11 9 9 9 9 7 7 7 9 9 8 8 9 8 7 6 4 5 6 7 8 7 6 5 4 4 3 3 5 5 5 5 6 7 7 8 9 9 8 8 8 8 8 8 9 9 8 7 6 8 7 4 2 3 3 3 3 3 3 4 6 5 4 3 4 4 4 5 6 5 5 4 4 4 4 4 5 5 6 7 8 8
13 12 11 10 10 9 9 9 8 7 7 9 10 7 7 7 9 10 10 11 10 6 4 5 5 5 5 6 5 4 3 5 5 5 5 5 6 6 7 7 7 6 6 7 8 8 7 6 5 5 5 6 8 7 7 6 5 4 3 3 3 2 3 6 3 7 5 4 2 2 3 4 5 4 3 4 3 3 4 4 5 5 7 7 8
12 13 10 9 11 11 10 9 7 7 7 9 10 8 8 8 8 7 6 6 6 8 8 6 4 5 6 6 5 4 3 5 5 5 5 5 5 6 5 6 6 6 6 6 7 6 6 4 3 3 5 6 6 8 8 8 6 4 2 4 5 6 6 6 5 1 1 5 4 3 3 2 2 3 3 3 3 4 4 4 5 5 6 7 7
12 12 12 10 10 9 9 9 8 7 7 9 9 8 6 7 7 7 7 4 5 5 6 6 5 5 6 5 5 5 4 5 5 5 5 5 4 6 6 6 6 6 5 5 5 6 7 7 5 5 5 4 4 6 7 6 6 7 6 4 5 5 5 5 4 3 2 2 3 2 2 3 1 1 3 3 3 3 3 4 4 5 5 5 6
12 12 12 10 9 8 9 10 9 7 7 8 7 8 5 3 3 5 6 6 6 6 6 7 6 6 6 6 6 5 5 5 5 5 5 5 5 6 6 6 6 6 5 6 6 6 6 6 5 4 4 5 4 4 5 6 6 5 4 6 6 5 5 4 4 3 3 3 1 2 1 1 1 2 2 2 3 3 2 2 3 4 4 4 5
12 12 12 9 8 8 10 11 10 7 8 9 9 8 6 5 5 6 7 9 9 9 8 8 7 7 7 6 6 5 5 6 5 5 5 5 5 5 6 6 6 5 6 7 6 6 6 5 5 6 5 6 5 5 6 5 5 5 5 4 5 3 3 3 4 2 1 2 1 2 1 0 1 2 3 2 3 2 2 2 2 3 3 3 4
Wind_Direction
101 116 116 111 286 128 145 156 183 143 123 124 118 113 103 108 109 104 94 94 97 92 88 86 84 78 74 70 66 63 62 60 58 56 55 55 57 57 57 58 60 62 65 65 67 71 76 76 76 76 76 75 74 73 72 69 66 65 63 62 60 60 58 58 56 54 53 54 56 54 56 53 49 49 48 47 43 41 39 34 37 51 46 47 49
68 119 127 120 104 85 125 142 148 138 124 119 113 103 107 107 111 114 107 101 98 95 92 91 87 81 75 71 66 63 61 60 58 57 56 57 57 59 60 59 59 61 63 66 69 72 77 76 76 77 76 76 77 75 72 70 67 66 65 63 61 59 58 56 53 51 49 56 66 64 56 53 51 48 49 47 47 45 42 38 33 42 45 44 45
42 138 130 112 121 83 111 119 145 125 119 115 112 113 115 116 118 114 112 106 100 98 97 94 89 83 76 72 68 63 62 61 61 61 60 59 60 59 60 61 61 61 65 70 76 79 79 78 77 78 77 78 78 76 74 70 67 65 65 63 62 59 57 54 49 45 41 42 58 78 76 60 51 50 49 49 49 48 45 44 40 37 38 43 41
161 138 136 116 130 106 98 101 138 118 120 121 115 121 122 119 120 121 118 114 109 105 103 96 90 84 77 74 70 66 64 63 61 60 60 59 59 61 61 61 63 66 68 74 80 81 79 78 80 81 81 80 80 77 74 71 69 66 63 62 59 55 52 48 43 38 33 40 45 58 59 57 53 50 51 50 50 49 48 47 45 45 41 39 38
156 134 140 141 140 110 92 62 118 120 123 123 119 114 116 125 129 124 117 115 114 112 103 100 95 87 82 77 73 69 66 65 63 61 58 57 59 62 62 63 65 69 72 76 81 81 81 82 85 84 84 83 80 78 75 72 68 64 62 58 55 52 47 43 36 31 36 46 44 57 59 60 59 50 51 51 50 49 51 48 46 43 38 38 37
136 129 133 138 124 115 48 45 116 124 128 126 121 119 121 122 122 119 115 113 112 108 103 100 97 91 85 79 76 73 69 65 65 63 62 57 59 64 66 66 68 73 78 79 79 80 79 82 85 85 84 83 81 79 79 74 69 63 60 57 54 51 46 41 33 20 42 53 57 61 60 60 55 51 50 49 50 48 51 51 49 46 44 41 40
130 128 132 128 131 88 43 35 68 126 127 126 121 120 121 122 123 123 119 116 115 112 107 102 97 92 87 84 79 76 72 68 66 66 64 61 61 63 69 69 70 76 80 80 79 80 83 86 86 87 83 81 81 82 79 74 69 64 61 58 55 53 49 41 30 23 46 55 58 62 62 61 58 55 51 51 49 50 52 53 50 48 48 46 44
141 140 137 128 131 105 39 32 46 122 126 125 120 119 121 122 122 117 114 115 112 108 106 101 97 91 88 86 82 78 74 72 70 68 66 66 64 65 68 71 75 78 80 81 82 83 86 88 90 88 84 84 84 81 77 74 69 65 62 58 55 53 48 38 23 52 48 58 59 60 61 61 59 54 51 52 52 48 50 53 54 51 49 49 46
146 157 141 129 118 58 49 12 18 74 130 120 115 113 114 108 109 110 113 114 112 111 107 104 101 94 89 86 83 78 75 73 70 69 71 68 68 69 71 74 77 78 80 82 84 85 86 87 86 87 85 80 74 74 70 67 68 66 64 60 55 53 48 36 37 56 61 62 59 59 58 59 55 57 56 55 53 54 51 50 52 52 50 48 49
147 161 150 153 131 87 56 9 3 29 124 119 113 111 108 106 112 112 111 112 113 110 106 106 101 95 90 86 83 80 76 73 70 70 72 70 72 73 76 77 78 80 80 83 86 87 84 81 82 80 75 73 73 74 73 73 70 68 66 60 55 50 46 35 65 57 62 65 68 66 59 60 60 59 57 59 59 55 59 59 63 58 51 51 52
136 153 161 130 128 96 76 7 11 359 99 132 127 118 114 107 112 110 110 114 116 114 108 106 105 99 93 89 86 83 80 78 76 76 75 75 76 79 81 81 80 82 84 85 87 85 85 78 75 75 77 77 77 76 78 76 72 68 63 59 54 48 41 33 63 64 61 62 58 59 59 56 60 54 58 59 59 57 55 54 55 60 53 50 49
139 150 150 144 123 86 61 16 358 332 347 151 140 127 119 114 112 111 115 120 122 119 115 114 111 105 100 96 92 88 85 82 81 81 80 79 81 84 85 84 84 84 84 87 85 86 84 81 80 81 81 80 79 79 76 73 70 67 62 58 54 50 36 35 65 67 62 63 59 59 59 52 50 53 51 53 60 63 59 57 54 51 53 51 50
153 153 148 145 159 117 101 29 38 333 272 165 151 140 130 121 116 119 123 124 124 120 120 114 107 107 102 100 97 93 89 87 87 85 82 81 81 84 86 87 87 87 87 87 88 88 84 85 86 85 82 79 77 75 73 70 69 65 61 57 54 52 43 41 68 66 63 56 53 52 55 59 55 53 51 54 58 57 60 58 56 53 49 49 47
177 136 147 159 151 139 168 156 93 73 48 145 162 146 140 131 125 125 126 125 128 124 123 125 126 111 106 102 99 96 92 91 89 88 84 81 81 81 82 85 88 90 91 91 91 91 92 90 85 81 79 77 75 73 71 70 70 67 62 59 50 39 60 62 64 62 61 63 56 53 52 53 48 55 52 52 59 60 55 53 51 50 52 50 52
168 132 147 166 168 162 167 153 143 99 165 29 343 164 148 139 133 127 125 127 131 131 133 131 125 116 110 104 101 96 92 90 89 87 86 83 82 81 81 82 85 88 89 89 91 93 93 90 82 80 79 77 75 73 73 72 70 67 63 58 49 31 35 72 65 65 64 62 60 57 53 53 48 47 52 50 54 62 62 57 55 55 53 51 49
137 175 120 111 196 164 178 144 153 149 144 129 5 342 147 135 128 125 131 132 140 138 133 132 124 120 115 108 102 98 95 92 89 86 83 83 81 81 81 82 84 86 89 90 91 92 89 86 84 83 81 79 78 76 75 71 68 64 60 53 44 29 32 67 70 66 64 65 66 60 57 51 46 49 47 52 54 55 60 58 58 57 56 54 54
53 58 47 57 48 193 168 179 138 131 174 167 25 37 144 142 129 128 136 135 139 136 134 132 128 118 115 109 103 100 98 95 92 89 86 83 81 80 80 80 82 84 86 88 89 88 87 86 85 84 82 80 78 75 72 68 64 60 56 52 46 33 30 58 68 65 69 66 59 60 58 60 56 53 50 48 50 53 53 54 53 55 61 55 54
47 56 60 39 62 51 129 163 163 152 195 155 127 70 65 180 132 135 134 135 136 137 135 131 125 122 119 109 108 103 100 98 95 92 88 84 85 84 82 83 84 84 85 86 86 85 85 86 84 82 80 78 75 73 69 65 61 57 53 49 46 42 45 63 70 69 64 56 61 60 62 59 59 60 56 51 48 48 48 48 48 46 47 56 52
78 74 61 53 51 30 72 94 99 205 214 191 198 144 166 165 136 139 139 136 132 127 129 129 123 123 118 112 109 106 102 96 94 95 94 88 86 85 86 89 89 87 87 87 87 86 86 85 82 81 80 78 76 73 69 65 60 56 52 45 40 47 54 65 65 61 58 62 61 53 59 65 62 61 61 58 54 54 51 50 51 50 47 51 53
63 53 61 52 44 40 32 83 67 111 121 251 214 192 153 161 144 140 139 134 129 127 129 127 124 126 121 119 117 116 111 105 103 95 86 79 75 87 89 92 93 93 93 92 90 89 87 86 86 84 81 79 74 70 66 63 59 54 49 42 41 46 61 69 62 65 65 55 55 49 35 52 57 58 59 62 61 60 60 60 56 51 49 47 50
86 78 60 55 48 33 28 85 48 90 67 317 240 208 143 147 148 136 138 130 126 120 117 116 122 128 129 129 140 130 122 122 118 107 101 87 79 82 91 93 95 96 96 96 95 93 92 92 90 88 85 81 76 68 62 60 55 50 44 37 44 54 58 68 70 58 56 58 58 53 48 55 62 64 64 61 59 60 56 55 57 56 54 52 49
145 132 72 44 39 5 5 39 76 57 99 195 239 215 176 194 185 167 159 139 129 134 143 140 138 139 137 153 146 136 127 122 114 115 108 105 88 82 88 94 95 94 94 93 92 93 93 93 90 85 82 80 82 80 72 62 53 48 40 38 51 51 53 65 71 65 49 44 53 62 59 61 64 64 64 64 62 58 58 56 55 52 52 52 52
163 140 114 63 27 269 29 34 41 38 172 163 240 235 218 197 183 178 156 148 149 164 159 155 159 155 164 167 159 146 132 127 122 102 101 88 95 92 90 91 92 91 90 91 92 91 91 89 85 80 78 76 72 71 68 67 65 50 49 49 52 49 52 58 62 58 47 36 34 45 61 59 59 62 64 61 61 60 59 59 58 57 54 52 53
159 132 124 112 333 341 49 298 347 347 257 157 177 205 222 207 185 178 157 173 176 179 175 176 161 167 178 175 163 146 131 119 95 111 117 114 101 94 94 93 97 96 99 94 92 92 92 84 77 80 78 72 72 70 67 64 62 59 57 56 55 48 50 58 63 61 54 38 33 35 52 56 55 54 56 55 55 56 57 58 54 51 50 52 52
126 134 166 157 152 279 301 268 320 295 315 193 154 158 209 214 190 189 184 185 182 184 182 181 173 177 183 176 159 151 135 134 138 139 135 129 126 126 127 123 121 120 121 111 113 117 108 94 82 72 68 67 70 64 60 62 63 63 60 59 58 53 55 58 62 63 56 45 34 36 50 58 58 56 56 56 54 52 50 52 53 53 48 47 48
149 196 169 167 168 208 284 314 278 295 323 310 343 203 262 208 191 181 188 181 186 179 178 181 185 186 184 181 165 162 146 148 146 146 146 141 141 137 134 133 132 129 127 119 118 111 100 88 80 73 65 64 67 66 57 58 62 60 60 56 57 57 57 59 60 63 58 48 31 37 43 57 59 59 56 56 55 52 52 52 52 50 48 47 45
191 205 170 180 184 269 290 276 265 258 276 262 241 290 248 325 235 179 184 190 186 176 177 183 194 194 183 180 176 172 161 156 152 149 149 153 146 142 137 140 138 131 127 118 103 95 93 90 85 82 78 72 69 66 61 53 51 57 58 57 55 57 59 58 59 61 59 52 35 30 45 52 58 59 57 56 56 54 53 52 52 51 49 48 46
227 205 233 265 257 265 276 269 252 244 243 226 230 230 221 39 299 167 201 171 178 177 173 161 191 205 187 158 203 168 153 158 152 150 148 151 129 141 140 140 137 123 117 110 109 103 97 91 89 87 85 76 72 69 70 59 51 52 54 55 55 56 57 59 60 59 59 55 45 29 38 45 49 53 56 57 56 53 52 52 51 51 50 48 47
217 209 214 225 225 244 254 255 258 252 242 236 229 223 214 130 251 107 324 162 164 167 164 167 163 180 176 178 179 165 154 144 159 140 136 118 106 127 132 124 130 124 118 114 111 111 101 96 94 94 89 81 73 69 67 66 64 56 57 58 58 57 56 58 57 56 58 59 52 34 36 39 46 48 49 51 51 50 49 49 50 49 49 49 47
200 192 209 220 238 255 255 254 252 243 237 232 224 217 206 179 147 136 118 352 118 137 147 154 169 169 140 134 147 143 145 136 124 133 136 125 112 89 98 89 80 80 101 99 100 103 105 104 101 94 87 81 72 66 71 66 58 60 59 60 58 59 57 56 55 55 58 57 57 50 39 39 41 45 47 48 48 48 47 46 46 47 48 48 47
178 200 201 209 218 250 256 250 242 238 237 222 222 223 210 198 142 132 132 94 123 118 146 150 150 152 141 132 141 146 137 129 111 92 84 108 118 106 97 93 91 77 86 86 81 92 99 102 103 101 98 97 88 77 79 76 69 65 62 64 65 64 62 59 59 57 55 54 53 53 48 44 42 41 43 47 48 48 47 46 45 44 44 45 44
199 199 201 187 208 219 230 234 252 215 208 215 215 219 205 165 151 156 145 136 146 127 107 130 157 152 149 146 140 149 144 139 129 125 126 117 112 111 112 110 105 104 95 103 103 96 98 99 100 100 101 97 96 87 77 79 75 70 69 69 65 67 64 63 62 58 54 52 51 50 47 48 47 43 41 42 45 46 45 44 43 43 42 42 43
188 186 185 190 201 203 210 212 211 186 194 192 197 186 177 154 140 167 155 150 126 117 117 104 88 143 154 149 147 147 154 151 144 136 125 120 113 117 113 111 112 111 109 108 108 105 107 110 102 96 96 100 98 92 85 83 81 77 72 71 72 68 64 65 63 58 55 51 49 45 45 43 45 48 42 38 39 41 42 43 42 42 42 41 43
174 178 186 198 186 197 210 173 170 166 149 121 123 138 127 125 120 124 68 84 91 108 115 107 58 107 132 118 125 126 131 119 119 116 123 121 119 118 121 120 120 119 119 121 110 112 112 111 112 108 105 102 100 97 94 89 86 81 76 71 71 70 70 67 63 61 58 55 50 46 44 42 41 42 46 42 38 39 41 42 42 42 42 42 41
174 187 196 187 179 168 140 167 133 150 146 115 76 91 111 118 116 103 70 48 65 95 95 114 124 116 105 111 118 115 114 118 120 118 111 115 117 118 121 128 133 133 125 123 116 113 118 121 123 114 107 99 97 97 95 92 89 84 80 80 79 79 75 72 69 64 61 59 55 50 46 42 41 40 45 50 43 38 41 42 43 42 42 41 40
194 187 184 187 184 171 166 164 156 149 134 105 92 91 107 121 121 116 104 84 77 86 77 61 72 106 111 113 114 116 119 123 115 113 114 114 111 117 126 128 133 131 127 126 120 123 125 120 121 124 119 113 109 103 99 95 87 85 84 83 82 80 78 72 65 61 57 60 57 53 49 46 44 44 44 53 56 45 42 44 43 42 41 39 38
192 186 189 185 177 166 163 160 158 149 118 111 108 91 93 106 108 108 108 108 105 95 91 71 56 65 80 106 109 116 128 128 127 127 125 129 126 119 123 130 132 126 124 124 121 124 127 124 122 118 118 119 113 109 103 97 93 89 85 81 78 78 76 72 69 67 60 59 59 58 56 50 48 45 50 48 50 57 48 46 48 43 40 38 36
191 194 198 194 179 174 167 150 136 130 127 123 117 108 102 100 97 96 75 77 93 104 101 98 73 76 62 75 83 107 121 122 125 126 120 121 123 125 130 130 127 125 121 120 120 126 128 127 122 118 119 121 119 116 108 103 99 94 85 80 79 77 78 76 75 68 63 60 57 55 55 55 50 50 49 50 49 45 43 46 47 49 41 35 33
191 194 194 186 174 172 162 132 134 130 122 117 103 94 97 96 94 92 91 76 74 102 108 106 127 122 103 106 108 110 111 103 112 126 127 127 126 130 135 136 134 132 126 125 127 130 127 126 125 123 117 112 117 113 112 109 104 98 90 82 78 75 73 72 72 67 64 60 59 58 57 58 57 51 50 48 46 43 41 37 35 33 35 31 29
193 193 194 174 179 152 146 145 146 139 132 127 127 115 113 116 111 100 89 71 69 110 111 90 91 115 120 130 129 135 131 120 119 129 135 134 132 134 133 135 132 133 132 134 140 138 131 126 123 124 117 105 105 113 120 116 104 97 92 85 78 77 71 69 69 70 68 60 56 54 59 60 60 55 51 50 45 43 42 40 38 33 30 27 28
195 191 189 183 182 165 161 160 159 152 152 148 149 147 142 121 109 130 124 114 116 115 99 108 104 97 114 120 128 135 133 126 125 139 135 130 125 129 136 136 139 141 137 137 136 133 129 127 124 125 127 123 120 128 130 129 119 101 96 92 89 78 78 75 71 68 65 62 58 58 55 62 64 62 58 54 50 47 47 43 41 37 29 22 20
197 191 193 191 186 172 170 160 160 167 166 163 153 156 159 163 153 147 136 136 145 136 124 116 105 102 89 99 117 122 134 132 133 135 139 131 127 134 140 144 144 140 130 131 134 133 133 133 134 123 125 128 130 143 150 176 140 132 133 121 105 101 92 89 80 71 69 67 64 61 60 59 60 64 64 65 60 52 48 45 41 36 30 24 20
194 193 195 193 182 172 175 165 170 170 166 157 161 149 127 93 106 120 119 108 47 53 88 98 105 105 91 80 87 109 124 127 132 141 139 132 132 137 141 145 143 134 131 135 139 140 144 144 148 141 134 115 121 93 144 308 136 141 130 138 138 138 144 122 98 77 71 73 71 67 65 64 58 60 60 60 60 55 49 44 42 36 30 24 20
195 195 194 195 182 181 174 172 169 171 164 152 111 103 98 94 80 87 74 65 117 89 87 83 93 116 107 90 84 96 117 129 130 134 137 134 138 142 140 143 140 145 143 145 150 148 149 150 147 142 137 137 153 156 10 313 298 160 171 271 145 188 146 141 120 93 82 75 71 70 65 68 70 68 65 59 57 54 50 46 43 38 31 26 21
197 197 194 192 182 182 173 173 172 169 161 143 133 126 118 105 99 86 85 94 92 107 108 113 133 129 120 121 112 105 126 125 123 131 142 135 136 140 143 144 146 149 149 148 152 155 154 151 150 149 161 149 152 137 100 356 348 2 331 155 160 208 120 126 136 118 150 101 80 80 68 67 66 63 62 60 57 58 55 49 47 40 33 26 21
199 199 194 189 179 180 176 174 166 163 158 155 150 151 151 142 140 134 138 139 147 159 167 167 169 165 149 120 107 115 127 121 127 125 127 134 138 142 142 147 149 149 153 148 143 144 151 151 158 159 151 151 144 140 128 88 58 48 30 5 342 349 134 151 194 140 109 86 105 93 74 62 61 62 62 65 62 63 53 51 46 44 35 28 21
200 195 191 181 180 177 178 171 165 164 161 162 163 160 155 167 168 166 166 168 164 174 147 143 151 132 130 136 126 125 130 125 121 126 125 130 135 138 140 142 144 142 133 135 140 150 150 153 150 155 147 137 144 137 141 136 120 72 53 57 65 42 48 150 203 128 160 150 139 113 100 73 61 68 72 67 63 65 59 54 46 43 38 29 21
194 192 185 176 183 180 172 171 167 166 163 165 172 176 167 174 176 168 168 165 167 153 149 134 110 131 134 132 134 129 126 117 120 115 122 124 131 130 127 127 125 123 135 143 145 143 136 114 136 125 136 151 156 147 145 159 156 136 133 101 83 70 56 44 24 317 98 155 151 137 117 129 74 71 76 75 71 63 60 55 43 35 33 27 20
194 194 193 182 180 173 167 168 169 167 165 171 174 183 191 184 177 165 161 132 107 113 116 119 132 144 134 131 131 132 122 100 103 110 111 115 119 127 124 129 129 133 132 123 114 120 134 142 143 149 156 146 145 142 147 151 138 140 136 109 96 87 74 58 51 26 49 169 131 143 151 142 193 87 76 86 76 70 63 53 48 37 33 28 17
195 194 195 179 168 163 166 170 170 169 169 172 178 184 191 187 173 172 143 126 127 125 136 144 147 150 137 141 136 140 127 113 100 103 106 112 114 122 124 123 124 122 120 117 117 119 126 133 137 135 131 124 120 130 133 132 132 134 129 135 125 114 100 84 56 66 68 15 38 107 118 222 186 131 88 90 92 95 70 63 54 45 35 26 11
194 194 194 177 156 169 173 177 175 168 171 174 179 182 183 193 185 176 157 146 146 147 147 152 152 155 149 152 151 136 126 118 121 115 110 117 117 118 124 120 116 114 118 126 132 131 128 122 114 115 117 125 122 109 101 98 114 114 118 127 121 117 122 134 137 124 150 145 172 129 144 75 5 148 126 111 131 114 85 59 48 45 29 18 5